Weather History for Pompano Beach, FL

Change the Weather History Date:

Tuesday, January 29, 2013

  Actual Average Record
Temperature  
Mean Temperature 76 °F -  
Max Temperature 79 °F 76 °F 88 °F (1991)
Min Temperature 73 °F 56 °F 39 °F (1978)
Cooling Degree Days 11    
Growing Degree Days 26 (Base 50)    
Moisture  
Dew Point 67 °F    
Average Humidity 76    
Maximum Humidity 85    
Minimum Humidity 69    
Precipitation  
Precipitation 0.00 in - - ()
Sea Level Pressure  
Sea Level Pressure 30.19 in    
Wind  
Wind Speed 11 mph (SE)    
Max Wind Speed 16 mph    
Max Gust Speed 22 mph    
Visibility 10 miles    
Events      
Averages and records for this station are not official NWS values.
T = Trace of Precipitation, MM = Missing Value Source: NWS Daily Summary

Daily Weather History Graph

Daily Weather History Graph

Search for Another Location

Airport:

Trip Planner

Search our weather history database for the weather conditions in past years. The results will help you decide how hot, cold, wet, or windy it might be!

Date:

Astronomy

Jan. 29, 2013 Rise Set
Actual Time 7:06 AM EST 6:01 PM EST
Civil Twilight 6:41 AM EST 6:25 PM EST
Nautical Twilight 6:14 AM EST 6:53 PM EST
Astronomical Twilight 5:46 AM EST 7:20 PM EST
Moon 8:33 PM EST (1/29) 8:21 AM EST (1/29)
Length of Visible Light 11h 43m
Length of Day
10h 55m
Waning Gibbous, 94% of the Moon is Illuminated
Jan 29
Waning Gibbous
Feb 3
Last Quarter
Feb 10
New
Feb 17
First Quarter
Feb 25
Full

Hourly Weather History & Observations

Time (EST) Temp. Dew Point Humidity Pressure Visibility Wind Dir Wind Speed Gust Speed Precip Events Conditions
12:53 AM 73.9 °F 66.0 °F 76% 30.24 in 10.0 mi ESE 9.2 mph - N/A   Mostly Cloudy
1:53 AM 73.9 °F 64.9 °F 73% 30.22 in 10.0 mi ESE 11.5 mph - N/A   Partly Cloudy
2:53 AM 73.0 °F 66.0 °F 79% 30.21 in 10.0 mi ESE 8.1 mph - N/A   Clear
3:53 AM 73.0 °F 66.0 °F 79% 30.20 in 10.0 mi ESE 12.7 mph - N/A   Clear
4:53 AM 73.0 °F 64.9 °F 76% 30.20 in 10.0 mi SE 11.5 mph - N/A   Scattered Clouds
5:53 AM 73.0 °F 66.9 °F 81% 30.21 in 10.0 mi SE 9.2 mph - N/A   Mostly Cloudy
6:53 AM 73.0 °F 66.9 °F 81% 30.22 in 10.0 mi ESE 10.4 mph - N/A   Clear
7:53 AM 73.9 °F 69.1 °F 85% 30.23 in 10.0 mi SE 8.1 mph - N/A   Scattered Clouds
8:53 AM 75.0 °F 69.1 °F 82% 30.24 in 10.0 mi SE 11.5 mph - N/A   Scattered Clouds
9:53 AM 77.0 °F 69.1 °F 76% 30.24 in 10.0 mi SSE 15.0 mph - N/A   Scattered Clouds
10:53 AM 75.9 °F 69.1 °F 79% 30.24 in 10.0 mi SE 12.7 mph - N/A   Scattered Clouds
11:53 AM 79.0 °F 69.1 °F 72% 30.22 in 10.0 mi SE 15.0 mph 20.7 mph N/A   Scattered Clouds
12:53 PM 77.0 °F 68.0 °F 74% 30.20 in 10.0 mi SE 16.1 mph - N/A   Mostly Cloudy
1:53 PM 77.0 °F 68.0 °F 74% 30.17 in 10.0 mi SE 15.0 mph - N/A   Overcast
2:53 PM 77.0 °F 66.0 °F 69% 30.15 in 10.0 mi SE 16.1 mph 21.9 mph N/A   Overcast
3:53 PM 77.0 °F 66.9 °F 71% 30.14 in 10.0 mi SE 11.5 mph - N/A   Partly Cloudy
4:53 PM 75.9 °F 66.9 °F 74% 30.16 in 10.0 mi SE 15.0 mph - N/A   Partly Cloudy
5:53 PM 73.9 °F 66.9 °F 79% 30.16 in 10.0 mi SE 12.7 mph - N/A   Scattered Clouds
6:53 PM 73.9 °F 64.9 °F 73% 30.17 in 10.0 mi ESE 11.5 mph - N/A   Scattered Clouds
7:53 PM 73.9 °F 66.0 °F 76% 30.17 in 10.0 mi ESE 9.2 mph - N/A   Overcast
8:53 PM 73.9 °F 64.9 °F 73% 30.17 in 10.0 mi ESE 12.7 mph - N/A   Mostly Cloudy
9:53 PM 73.0 °F 66.0 °F 79% 30.16 in 10.0 mi ESE 12.7 mph - N/A   Clear
10:53 PM 73.0 °F 64.9 °F 76% 30.16 in 10.0 mi ESE 15.0 mph - N/A   Partly Cloudy
11:53 PM 73.0 °F 64.0 °F 73% 30.14 in 10.0 mi ESE 12.7 mph 21.9 mph N/A   Partly Cloudy